Voltar ao catálogo

COSMOS 2251 DEB

AtivoLEO
NORAD 36046·DEBRIS·🇷🇺 Russia

Lançado Jun 16, 1993 de Plesetsk Cosmodrome

Loading…

Próximas Passagens (próximas 24 horas)

TLE

EnvelhecendoSource: Space-Track

Época: Sep 9, 2026, 21:28 UTC

1 36046U 93036AXH 26252.89497909  .00001286  00000-0  23214-3 0  9994
2 36046  74.0134 113.4198 0056888 192.7131 179.2393 14.66539802679770

Acompanhe COSMOS 2251 DEB em tempo real com AllMySat

Download on the App Store